STARLINK-34313 (64166 NORAD) Tracking and Keplerian Element Data

This shows tracking and keplerian element data for the satellite.

Feedback or suggestion? Click here.




ElementValue
Catalog64166
NameSTARLINK-34313
Epoch Orbit3130
Epoch Day353.8994865
Epoch Year2025
RAAN42.8942
Inclination97.6035
Eccentricity3.48E-05
Argument of Perigee125.2248
Mean Anonmoly234.9012
Mean Motion15.05652624
Decay Rate2.075E-05
L11 64166U 25112W 25353.89948650 .00002075 00000+0 14798-3 0 9996
L22 64166 97.6035 42.8942 0000348 125.2248 234.9012 15.05652624 31307



Live tracking and technical data element details for STARLINK-34313 (NORAD 64166). STARLINK-34313 can be tracked NOW for your location showing map with azimuth and elevation plus other details from your city location.







IsCatalogInMostPopularTable: catalog: 64166, numindb: 11
Update: records affected: 1



GetName: 64166 STARLINK-34313

Hit Count: updated at: Tue, 21 Apr 2026 20:26:32 GMT